Location: The C. Gantt Observatory
(33.6981°N, 81.6836°W)
Time: 04:48:54
(UTC-04:00)

Iridium 30 - Visible Passes

Search period start: 24 June 2017 00:00
Search period end: 04 July 2017 00:00
Orbit: 776 x 779 km, 86.4° (Epoch: 23 June)

Date Brightness Start Highest point End Pass type
(mag) Time Alt. Az. Time Alt. Az. Time Alt. Az.
24 Jun 6.2 02:26:19 52° N 02:26:19 52° N 02:30:13 10° N visible
25 Jun 6.7 01:52:55 38° NE 01:52:55 38° NE 01:56:32 10° NNE visible
25 Jun 7.6 03:33:24 15° WNW 03:33:24 15° WNW 03:35:29 10° NW visible
26 Jun 7.4 01:19:32 22° ENE 01:19:32 22° ENE 01:22:23 10° NNE visible
26 Jun 7.0 03:00:00 26° WNW 03:00:00 26° WNW 03:03:14 10° NNW visible
27 Jun 8.0 00:46:08 12° ENE 00:46:08 12° ENE 00:47:11 10° NE visible
27 Jun 6.5 02:26:37 41° NNW 02:26:37 41° NNW 02:30:14 10° N visible
28 Jun 6.5 01:53:12 44° NNE 01:53:12 44° NNE 01:56:47 10° N visible
29 Jun 7.0 01:19:48 30° NE 01:19:48 30° NE 01:22:56 10° NNE visible
29 Jun 7.5 03:00:16 18° WNW 03:00:16 18° WNW 03:02:44 10° NNW visible
30 Jun 7.6 00:46:23 17° ENE 00:46:23 17° ENE 00:48:31 10° NE visible
30 Jun 6.9 02:26:51 30° NW 02:26:51 30° NW 02:30:06 10° NNW visible
01 Jul 6.6 01:53:26 42° NNW 01:53:26 42° NNW 01:56:54 10° N visible
02 Jul 6.8 01:20:00 37° NNE 01:20:00 37° NNE 01:23:18 10° NNE visible
02 Jul 7.9 03:00:29 12° WNW 03:00:29 12° WNW 03:01:40 10° NW visible
03 Jul 7.3 00:46:34 23° NE 00:46:34 23° NE 00:49:16 10° NNE visible
03 Jul 7.3 02:27:03 22° NW 02:27:03 22° NW 02:29:46 10° NNW visible
